| time (UTC) | temp C | wind direction | speed KPH | gust KPH | rain 1hr cm | rain 24hr cm | rain mn cm | humidity % | barometer mb |
| 20260510230747 | 29 | 238 | 3.2 | 4.8 | 0.00 | 0.05 | 0.05 | 68 | 1015.0 |
| 20260510230242 | 29 | 276 | 1.6 | 1.6 | 0.00 | 0.05 | 0.05 | 68 | 1015.0 |
| 20260510225740 | 30 | 264 | 3.2 | 3.2 | 0.00 | 0.05 | 0.05 | 68 | 1014.8 |
| 20260510225235 | 30 | 334 | 1.6 | 1.6 | 0.00 | 0.05 | 0.05 | 66 | 1015.0 |
| 20260510224731 | 30 | 311 | 1.6 | 1.6 | 0.00 | 0.05 | 0.05 | 65 | 1015.0 |
| 20260510224228 | 30 | 316 | 1.6 | 1.6 | 0.00 | 0.05 | 0.05 | 65 | 1015.1 |
| 20260510223726 | 30 | 281 | 1.6 | 1.6 | 0.00 | 0.05 | 0.05 | 65 | 1014.9 |
| 20260510223223 | 30 | 279 | 0.0 | 1.6 | 0.00 | 0.05 | 0.05 | 63 | 1014.9 |
| 20260510222720 | 31 | 197 | 1.6 | 3.2 | 0.00 | 0.05 | 0.05 | 61 | 1014.9 |
| 20260510222217 | 31 | 288 | 1.6 | 1.6 | 0.00 | 0.05 | 0.05 | 62 | 1015.1 |
| 20260510221712 | 31 | 280 | 3.2 | 4.8 | 0.00 | 0.05 | 0.05 | 62 | 1015.0 |
| 20260510221209 | 31 | 297 | 1.6 | 3.2 | 0.00 | 0.05 | 0.05 | 62 | 1014.9 |
| 20260510220705 | 31 | 201 | 6.4 | 9.7 | 0.00 | 0.05 | 0.05 | 61 | 1015.0 |
| 20260510220200 | 31 | 270 | 4.8 | 6.4 | 0.00 | 0.05 | 0.05 | 56 | 1015.0 |
| 20260510215658 | 31 | 236 | 1.6 | 3.2 | 0.00 | 0.05 | 0.05 | 58 | 1014.9 |
| 20260510215156 | 31 | 269 | 3.2 | 3.2 | 0.00 | 0.05 | 0.05 | 59 | 1014.9 |
| 20260510214652 | 31 | 281 | 3.2 | 4.8 | 0.00 | 0.05 | 0.05 | 58 | 1015.1 |
| 20260510214149 | 31 | 299 | 4.8 | 9.7 | 0.00 | 0.05 | 0.05 | 59 | 1015.0 |
| 20260510213646 | 32 | 356 | 0.0 | 0.0 | 0.00 | 0.05 | 0.05 | 58 | 1015.0 |
| 20260510213143 | 32 | 257 | 8.0 | 11.3 | 0.00 | 0.05 | 0.05 | 58 | 1015.0 |
| 20260510212639 | 32 | 230 | 3.2 | 3.2 | 0.00 | 0.05 | 0.05 | 58 | 1015.1 |
| 20260510212136 | 31 | 243 | 3.2 | 3.2 | 0.00 | 0.05 | 0.05 | 58 | 1015.1 |
| 20260510211632 | 32 | 277 | 3.2 | 4.8 | 0.00 | 0.05 | 0.05 | 59 | 1015.3 |
| 20260510211127 | 32 | 14 | 0.0 | 1.6 | 0.00 | 0.05 | 0.05 | 59 | 1015.2 |
| 20260510210624 | 32 | 243 | 1.6 | 3.2 | 0.00 | 0.05 | 0.05 | 59 | 1015.0 |
| 20260510210120 | 32 | 290 | 1.6 | 4.8 | 0.00 | 0.05 | 0.05 | 60 | 1015.1 |
| 20260510205618 | 31 | 286 | 3.2 | 4.8 | 0.00 | 0.05 | 0.05 | 60 | 1015.3 |
| 20260510205114 | 31 | 289 | 4.8 | 6.4 | 0.00 | 0.05 | 0.05 | 58 | 1015.2 |
| 20260510204610 | 31 | 351 | 3.2 | 4.8 | 0.00 | 0.05 | 0.05 | 61 | 1015.2 |
| 20260510204107 | 31 | 196 | 4.8 | 6.4 | 0.00 | 0.05 | 0.05 | 60 | 1015.1 |
| 20260510203559 | 31 | 248 | 1.6 | 1.6 | 0.00 | 0.05 | 0.05 | 62 | 1015.2 |
| 20260510203056 | 31 | 11 | 0.0 | 0.0 | 0.00 | 0.05 | 0.05 | 64 | 1015.2 |
| 20260510202555 | 31 | 303 | 1.6 | 1.6 | 0.00 | 0.05 | 0.05 | 65 | 1015.2 |
| 20260510202051 | 31 | 17 | 1.6 | 1.6 | 0.00 | 0.05 | 0.05 | 64 | 1015.0 |
| 20260510201548 | 31 | 351 | 1.6 | 3.2 | 0.00 | 0.05 | 0.05 | 64 | 1015.0 |
| 20260510201045 | 31 | 30 | 1.6 | 1.6 | 0.00 | 0.05 | 0.05 | 64 | 1015.1 |
| 20260510200541 | 31 | 358 | 0.0 | 0.0 | 0.00 | 0.05 | 0.05 | 64 | 1015.0 |
| 20260510200039 | 32 | 348 | 4.8 | 4.8 | 0.00 | 0.05 | 0.05 | 63 | 1015.2 |
| 20260510195536 | 32 | 350 | 0.0 | 0.0 | 0.00 | 0.05 | 0.05 | 63 | 1015.0 |
| 20260510195032 | 31 | 343 | 0.0 | 0.0 | 0.00 | 0.05 | 0.05 | 62 | 1015.1 |
| 20260510194527 | 33 | 346 | 4.8 | 4.8 | 0.00 | 0.05 | 0.05 | 61 | 1015.2 |
| 20260510194024 | 33 | 338 | 1.6 | 1.6 | 0.00 | 0.05 | 0.05 | 56 | 1015.2 |
| 20260510193519 | 33 | 283 | 4.8 | 6.4 | 0.00 | 0.05 | 0.05 | 59 | 1015.0 |
| 20260510193015 | 33 | 256 | 3.2 | 3.2 | 0.00 | 0.05 | 0.05 | 60 | 1015.0 |
| 20260510192509 | 32 | 198 | 6.4 | 9.7 | 0.00 | 0.05 | 0.05 | 62 | 1015.1 |
| 20260510192006 | 30 | 310 | 3.2 | 4.8 | 0.00 | 0.05 | 0.05 | 69 | 1015.3 |
| 20260510191502 | 30 | 310 | 1.6 | 3.2 | 0.00 | 0.05 | 0.05 | 73 | 1015.1 |
| 20260510190959 | 29 | 280 | 4.8 | 6.4 | 0.00 | 0.05 | 0.05 | 73 | 1015.1 |
| 20260510190456 | 30 | 221 | 1.6 | 3.2 | 0.00 | 0.05 | 0.05 | 73 | 1015.2 |
| 20260510185953 | 31 | 237 | 3.2 | 4.8 | 0.00 | 0.05 | 0.05 | 64 | 1015.0 |
| 20260510185450 | 31 | 209 | 9.7 | 11.3 | 0.00 | 0.05 | 0.05 | 61 | 1015.1 |
| 20260510184948 | 32 | 196 | 9.7 | 12.9 | 0.00 | 0.05 | 0.05 | 60 | 1015.2 |
| 20260510184445 | 32 | 242 | 8.0 | 12.9 | 0.00 | 0.05 | 0.05 | 59 | 1015.0 |
| 20260510183944 | 32 | 249 | 6.4 | 9.7 | 0.00 | 0.05 | 0.05 | 59 | 1015.0 |
| 20260510183441 | 32 | 209 | 3.2 | 4.8 | 0.00 | 0.05 | 0.05 | 58 | 1014.9 |
| 20260510182936 | 32 | 204 | 9.7 | 11.3 | 0.00 | 0.05 | 0.05 | 60 | 1015.0 |
| 20260510182432 | 32 | 195 | 9.7 | 12.9 | 0.00 | 0.05 | 0.05 | 58 | 1015.2 |
| 20260510181928 | 32 | 235 | 11.3 | 16.1 | 0.00 | 0.05 | 0.05 | 59 | 1015.4 |
| 20260510181426 | 32 | 189 | 6.4 | 6.4 | 0.00 | 0.05 | 0.05 | 59 | 1015.2 |
| 20260510180922 | 32 | 239 | 6.4 | 11.3 | 0.00 | 0.05 | 0.05 | 59 | 1015.5 |
| 20260510180419 | 32 | 190 | 14.5 | 17.7 | 0.00 | 0.05 | 0.05 | 58 | 1015.3 |
| 20260510175916 | 32 | 212 | 12.9 | 16.1 | 0.00 | 0.05 | 0.05 | 60 | 1015.6 |
| 20260510175412 | 33 | 205 | 9.7 | 14.5 | 0.00 | 0.05 | 0.05 | 58 | 1015.6 |
| 20260510174908 | 32 | 212 | 12.9 | 16.1 | 0.00 | 0.05 | 0.05 | 60 | 1015.6 |
| 20260510174406 | 32 | 223 | 11.3 | 12.9 | 0.00 | 0.05 | 0.05 | 61 | 1015.4 |
| 20260510173902 | 32 | 226 | 8.0 | 12.9 | 0.00 | 0.05 | 0.05 | 59 | 1015.8 |
| 20260510173358 | 32 | 211 | 12.9 | 14.5 | 0.00 | 0.05 | 0.05 | 60 | 1015.9 |
| 20260510172854 | 32 | 248 | 6.4 | 6.4 | 0.00 | 0.05 | 0.05 | 60 | 1015.8 |
| 20260510172350 | 32 | 192 | 11.3 | 12.9 | 0.00 | 0.05 | 0.05 | 61 | 1015.9 |
| 20260510171841 | 32 | 178 | 12.9 | 14.5 | 0.00 | 0.05 | 0.05 | 61 | 1016.0 |
| 20260510171339 | 31 | 188 | 11.3 | 14.5 | 0.00 | 0.05 | 0.05 | 61 | 1016.2 |
| 20260510170836 | 31 | 256 | 6.4 | 6.4 | 0.00 | 0.05 | 0.05 | 61 | 1016.3 |
| 20260510170332 | 32 | 219 | 9.7 | 11.3 | 0.00 | 0.05 | 0.05 | 60 | 1016.2 |
| 20260510165827 | 31 | 274 | 3.2 | 4.8 | 0.00 | 0.05 | 0.05 | 62 | 1016.4 |
| 20260510165324 | 32 | 236 | 6.4 | 11.3 | 0.00 | 0.05 | 0.05 | 59 | 1016.3 |
| 20260510164821 | 32 | 236 | 9.7 | 11.3 | 0.00 | 0.05 | 0.05 | 58 | 1016.2 |
| 20260510164319 | 31 | 355 | 0.0 | 0.0 | 0.00 | 0.05 | 0.05 | 61 | 1016.5 |
| 20260510163818 | 31 | 215 | 9.7 | 12.9 | 0.00 | 0.05 | 0.05 | 60 | 1016.5 |
| 20260510163315 | 32 | 198 | 16.1 | 17.7 | 0.00 | 0.05 | 0.05 | 59 | 1016.4 |
| 20260510162814 | 32 | 199 | 4.8 | 6.4 | 0.00 | 0.05 | 0.05 | 60 | 1016.5 |
| 20260510162312 | 32 | 303 | 6.4 | 11.3 | 0.00 | 0.05 | 0.05 | 60 | 1016.5 |
| 20260510161807 | 32 | 239 | 3.2 | 3.2 | 0.00 | 0.05 | 0.05 | 60 | 1016.4 |
| 20260510161303 | 31 | 28 | 4.8 | 6.4 | 0.00 | 0.05 | 0.05 | 59 | 1016.6 |
| 20260510160801 | 31 | 353 | 0.0 | 1.6 | 0.00 | 0.05 | 0.05 | 64 | 1016.7 |
| 20260510160257 | 31 | 291 | 3.2 | 4.8 | 0.00 | 0.05 | 0.05 | 61 | 1016.6 |
| 20260510155757 | 31 | 231 | 6.4 | 6.4 | 0.00 | 0.05 | 0.05 | 62 | 1016.8 |
| 20260510155253 | 31 | 248 | 6.4 | 6.4 | 0.00 | 0.05 | 0.05 | 63 | 1016.6 |
| 20260510154749 | 30 | 237 | 8.0 | 9.7 | 0.00 | 0.05 | 0.05 | 63 | 1016.6 |
| 20260510154245 | 31 | 261 | 4.8 | 4.8 | 0.00 | 0.05 | 0.05 | 60 | 1016.6 |
| 20260510153740 | 31 | 247 | 6.4 | 6.4 | 0.00 | 0.05 | 0.05 | 62 | 1016.3 |
| 20260510153236 | 30 | 183 | 4.8 | 4.8 | 0.00 | 0.05 | 0.05 | 64 | 1016.4 |
| 20260510152733 | 30 | 209 | 16.1 | 17.7 | 0.00 | 0.05 | 0.05 | 65 | 1016.6 |
| 20260510152229 | 30 | 136 | 3.2 | 4.8 | 0.00 | 0.05 | 0.05 | 67 | 1016.6 |
| 20260510151726 | 30 | 185 | 8.0 | 11.3 | 0.00 | 0.05 | 0.05 | 69 | 1016.6 |
| 20260510151225 | 29 | 124 | 1.6 | 1.6 | 0.00 | 0.05 | 0.05 | 71 | 1016.7 |
| 20260510150720 | 29 | 171 | 9.7 | 12.9 | 0.00 | 0.05 | 0.05 | 71 | 1016.7 |
| 20260510150215 | 29 | 174 | 3.2 | 4.8 | 0.00 | 0.05 | 0.05 | 71 | 1016.6 |
| 20260510145712 | 29 | 202 | 8.0 | 9.7 | 0.00 | 0.05 | 0.05 | 72 | 1016.8 |
| 20260510145208 | 30 | 178 | 6.4 | 6.4 | 0.00 | 0.05 | 0.05 | 70 | 1016.7 |
| 20260510144705 | 29 | 235 | 11.3 | 11.3 | 0.00 | 0.05 | 0.05 | 71 | 1016.7 |
| 20260510144201 | 29 | 240 | 9.7 | 12.9 | 0.00 | 0.05 | 0.05 | 71 | 1016.8 |
| 20260510143656 | 28 | 168 | 11.3 | 16.1 | 0.00 | 0.05 | 0.05 | 72 | 1016.7 |
| 20260510143153 | 28 | 173 | 8.0 | 11.3 | 0.00 | 0.05 | 0.05 | 74 | 1016.8 |
| 20260510142650 | 28 | 192 | 6.4 | 6.4 | 0.00 | 0.05 | 0.05 | 75 | 1016.6 |
| 20260510142146 | 28 | 207 | 12.9 | 14.5 | 0.00 | 0.05 | 0.05 | 76 | 1016.4 |
| 20260510141643 | 28 | 186 | 6.4 | 9.7 | 0.00 | 0.05 | 0.05 | 77 | 1016.7 |
| 20260510141142 | 27 | 182 | 6.4 | 6.4 | 0.00 | 0.05 | 0.05 | 78 | 1016.4 |
| 20260510140637 | 27 | 199 | 8.0 | 12.9 | 0.00 | 0.05 | 0.05 | 78 | 1016.6 |
| 20260510140137 | 27 | 107 | 1.6 | 3.2 | 0.00 | 0.05 | 0.05 | 79 | 1016.5 |
| 20260510135633 | 27 | 170 | 6.4 | 6.4 | 0.00 | 0.05 | 0.05 | 80 | 1016.4 |
| 20260510135129 | 27 | 139 | 3.2 | 4.8 | 0.00 | 0.05 | 0.05 | 82 | 1016.4 |
| 20260510134626 | 26 | 215 | 11.3 | 12.9 | 0.00 | 0.05 | 0.05 | 81 | 1016.5 |
| 20260510134123 | 26 | 135 | 3.2 | 4.8 | 0.00 | 0.05 | 0.05 | 83 | 1016.6 |
| 20260510133619 | 26 | 170 | 4.8 | 4.8 | 0.00 | 0.05 | 0.05 | 84 | 1016.4 |
| 20260510133115 | 26 | 223 | 6.4 | 6.4 | 0.00 | 0.05 | 0.05 | 84 | 1016.4 |
| 20260510132612 | 26 | 148 | 1.6 | 3.2 | 0.00 | 0.05 | 0.05 | 85 | 1016.4 |
| 20260510132109 | 26 | 225 | 6.4 | 9.7 | 0.00 | 0.05 | 0.05 | 86 | 1016.4 |
| 20260510131606 | 26 | 206 | 9.7 | 12.9 | 0.00 | 0.05 | 0.05 | 86 | 1016.5 |
| 20260510131103 | 26 | 169 | 1.6 | 1.6 | 0.00 | 0.05 | 0.05 | 88 | 1016.3 |
| 20260510130559 | 25 | 99 | 0.0 | 0.0 | 0.00 | 0.05 | 0.05 | 88 | 1016.3 |
| 20260510130057 | 25 | 174 | 1.6 | 1.6 | 0.00 | 0.05 | 0.05 | 88 | 1016.4 |
| 20260510125553 | 25 | 177 | 3.2 | 4.8 | 0.00 | 0.05 | 0.05 | 88 | 1016.5 |
| 20260510125050 | 25 | 186 | 6.4 | 6.4 | 0.00 | 0.05 | 0.05 | 89 | 1016.4 |
| 20260510124547 | 25 | 149 | 3.2 | 4.8 | 0.00 | 0.05 | 0.05 | 91 | 1016.2 |
| 20260510124044 | 25 | 195 | 3.2 | 3.2 | 0.00 | 0.05 | 0.05 | 92 | 1016.2 |
| 20260510123539 | 25 | 177 | 1.6 | 3.2 | 0.00 | 0.05 | 0.05 | 92 | 1016.1 |
| 20260510123035 | 24 | 202 | 0.0 | 3.2 | 0.00 | 0.05 | 0.05 | 93 | 1016.0 |
| 20260510122531 | 24 | 163 | 3.2 | 4.8 | 0.00 | 0.05 | 0.05 | 93 | 1016.0 |
| 20260510122027 | 23 | 167 | 1.6 | 1.6 | 0.00 | 0.05 | 0.05 | 95 | 1016.0 |
| 20260510121525 | 23 | 204 | 6.4 | 6.4 | 0.00 | 0.05 | 0.05 | 95 | 1015.9 |
| 20260510121022 | 23 | 208 | 4.8 | 4.8 | 0.00 | 0.05 | 0.05 | 96 | 1016.0 |
| 20260510120519 | 23 | 200 | 3.2 | 3.2 | 0.00 | 0.05 | 0.05 | 97 | 1015.6 |
| 20260510120015 | 23 | 200 | 3.2 | 3.2 | 0.00 | 0.05 | 0.05 | 97 | 1015.6 |
| 20260510115512 | 23 | 178 | 1.6 | 1.6 | 0.00 | 0.05 | 0.05 | 98 | 1015.6 |
| 20260510115008 | 22 | 205 | 3.2 | 3.2 | 0.00 | 0.05 | 0.05 | 98 | 1015.5 |
| 20260510114505 | 22 | 194 | 0.0 | 0.0 | 0.00 | 0.05 | 0.05 | 98 | 1015.6 |
| 20260510114000 | 22 | 221 | 0.0 | 0.0 | 0.00 | 0.05 | 0.05 | 99 | 1015.4 |
| 20260510113456 | 22 | 194 | 1.6 | 3.2 | 0.00 | 0.05 | 0.05 | 99 | 1015.3 |
| 20260510112954 | 22 | 213 | 0.0 | 0.0 | 0.00 | 0.05 | 0.05 | 99 | 1015.3 |
| 20260510112450 | 22 | 95 | 0.0 | 0.0 | 0.00 | 0.05 | 0.05 | 99 | 1015.3 |
| 20260510111947 | 22 | 59 | 0.0 | 0.0 | 0.00 | 0.05 | 0.05 | 99 | 1015.2 |
| 20260510111443 | 22 | 68 | 0.0 | 0.0 | 0.00 | 0.05 | 0.05 | 99 | 1014.8 |
| 20260510110939 | 22 | 68 | 0.0 | 0.0 | 0.00 | 0.05 | 0.05 | 99 | 1014.9 |
| 20260510110435 | 22 | 64 | 0.0 | 0.0 | 0.00 | 0.05 | 0.05 | 99 | 1014.8 |
| 20260510105931 | 22 | 64 | 0.0 | 0.0 | 0.00 | 0.05 | 0.05 | 99 | 1014.9 |
| 20260510105427 | 22 | 91 | 0.0 | 0.0 | 0.00 | 0.05 | 0.05 | 99 | 1014.8 |
| 20260510104922 | 22 | 95 | 0.0 | 0.0 | 0.00 | 0.05 | 0.05 | 98 | 1014.7 |
| 20260510104419 | 22 | 99 | 0.0 | 0.0 | 0.00 | 0.05 | 0.05 | 99 | 1014.8 |
| 20260510103915 | 22 | 98 | 0.0 | 0.0 | 0.00 | 0.05 | 0.05 | 99 | 1014.5 |
| 20260510103408 | 22 | 106 | 0.0 | 0.0 | 0.00 | 0.05 | 0.05 | 99 | 1014.3 |
| 20260510102903 | 22 | 109 | 0.0 | 0.0 | 0.00 | 0.05 | 0.05 | 99 | 1014.3 |
| 20260510102359 | 22 | 109 | 0.0 | 0.0 | 0.00 | 0.05 | 0.05 | 98 | 1014.1 |
| 20260510101856 | 22 | 98 | 0.0 | 0.0 | 0.00 | 0.05 | 0.05 | 98 | 1014.2 |
| 20260510101354 | 22 | 164 | 0.0 | 0.0 | 0.00 | 0.05 | 0.05 | 98 | 1013.9 |
| 20260510100850 | 22 | 94 | 0.0 | 0.0 | 0.00 | 0.05 | 0.05 | 98 | 1013.9 |
| 20260510100347 | 22 | 181 | 0.0 | 0.0 | 0.00 | 0.05 | 0.05 | 98 | 1014.1 |
| 20260510095844 | 22 | 86 | 0.0 | 0.0 | 0.00 | 0.05 | 0.05 | 98 | 1014.0 |
| 20260510095333 | 22 | 143 | 0.0 | 0.0 | 0.00 | 0.05 | 0.05 | 98 | 1013.8 |
| 20260510094833 | 22 | 184 | 0.0 | 0.0 | 0.00 | 0.05 | 0.05 | 98 | 1014.1 |
| 20260510094328 | 22 | 77 | 0.0 | 0.0 | 0.00 | 0.05 | 0.05 | 98 | 1013.6 |
| 20260510093825 | 22 | 77 | 0.0 | 0.0 | 0.00 | 0.05 | 0.05 | 98 | 1013.6 |
| 20260510093321 | 22 | 77 | 0.0 | 0.0 | 0.00 | 0.05 | 0.05 | 98 | 1013.7 |
| 20260510092817 | 22 | 77 | 0.0 | 0.0 | 0.00 | 0.05 | 0.05 | 98 | 1013.9 |
| 20260510092313 | 22 | 76 | 0.0 | 0.0 | 0.00 | 0.05 | 0.05 | 98 | 1013.6 |
| 20260510091809 | 22 | 76 | 0.0 | 0.0 | 0.00 | 0.05 | 0.05 | 98 | 1013.4 |
| 20260510091307 | 22 | 78 | 0.0 | 0.0 | 0.00 | 0.05 | 0.05 | 98 | 1013.5 |
| 20260510090803 | 22 | 78 | 0.0 | 0.0 | 0.00 | 0.05 | 0.05 | 98 | 1013.6 |
| 20260510090300 | 22 | 78 | 0.0 | 0.0 | 0.00 | 0.05 | 0.05 | 98 | 1013.5 |
| 20260510085755 | 22 | 81 | 0.0 | 0.0 | 0.00 | 0.05 | 0.05 | 98 | 1013.4 |
| 20260510085249 | 22 | 83 | 0.0 | 0.0 | 0.00 | 0.05 | 0.05 | 98 | 1013.4 |
| 20260510084745 | 22 | 75 | 0.0 | 0.0 | 0.00 | 0.05 | 0.05 | 98 | 1013.5 |
| 20260510084243 | 22 | 74 | 0.0 | 0.0 | 0.00 | 0.05 | 0.05 | 98 | 1013.2 |
| 20260510083739 | 22 | 78 | 0.0 | 0.0 | 0.00 | 0.05 | 0.05 | 98 | 1013.3 |
| 20260510083237 | 22 | 80 | 0.0 | 0.0 | 0.00 | 0.05 | 0.05 | 98 | 1013.5 |
| 20260510082737 | 22 | 187 | 0.0 | 3.2 | 0.00 | 0.05 | 0.05 | 98 | 1013.1 |
| 20260510082234 | 22 | 80 | 0.0 | 0.0 | 0.00 | 0.05 | 0.05 | 98 | 1013.2 |
| 20260510081733 | 22 | 175 | 0.0 | 1.6 | 0.00 | 0.05 | 0.05 | 98 | 1013.3 |
| 20260510081229 | 22 | 105 | 0.0 | 0.0 | 0.00 | 0.05 | 0.05 | 98 | 1013.4 |
| 20260510080724 | 22 | 83 | 0.0 | 0.0 | 0.00 | 0.05 | 0.05 | 98 | 1013.3 |
| 20260510080220 | 22 | 95 | 0.0 | 0.0 | 0.00 | 0.05 | 0.05 | 98 | 1013.5 |
| 20260510075717 | 22 | 73 | 0.0 | 0.0 | 0.00 | 0.05 | 0.05 | 98 | 1013.6 |
| 20260510075215 | 22 | 60 | 0.0 | 0.0 | 0.00 | 0.05 | 0.05 | 98 | 1013.3 |
| 20260510074712 | 22 | 66 | 0.0 | 0.0 | 0.00 | 0.05 | 0.05 | 98 | 1013.3 |
| 20260510074208 | 22 | 55 | 0.0 | 0.0 | 0.00 | 0.05 | 0.05 | 98 | 1013.5 |
| 20260510073705 | 22 | 55 | 0.0 | 0.0 | 0.00 | 0.05 | 0.05 | 98 | 1013.4 |
| 20260510073200 | 22 | 50 | 0.0 | 0.0 | 0.00 | 0.05 | 0.05 | 98 | 1013.6 |
| 20260510072657 | 22 | 40 | 0.0 | 0.0 | 0.00 | 0.05 | 0.05 | 98 | 1013.7 |
| 20260510072153 | 22 | 42 | 0.0 | 0.0 | 0.00 | 0.05 | 0.05 | 98 | 1013.7 |
| 20260510071649 | 22 | 50 | 0.0 | 0.0 | 0.00 | 0.05 | 0.05 | 98 | 1013.6 |
| 20260510071147 | 22 | 50 | 0.0 | 0.0 | 0.00 | 0.05 | 0.05 | 98 | 1013.6 |
| 20260510070644 | 22 | 50 | 0.0 | 0.0 | 0.00 | 0.05 | 0.05 | 97 | 1013.8 |
| 20260510070142 | 22 | 50 | 0.0 | 0.0 | 0.00 | 0.05 | 0.05 | 97 | 1013.8 |
| 20260510065638 | 23 | 11 | 0.0 | 0.0 | 0.00 | 0.05 | 0.05 | 97 | 1013.8 |
| 20260510065134 | 23 | 18 | 0.0 | 0.0 | 0.00 | 0.05 | 0.05 | 97 | 1013.6 |
| 20260510064631 | 23 | 57 | 0.0 | 0.0 | 0.00 | 0.05 | 0.05 | 97 | 1013.8 |
| 20260510064127 | 23 | 54 | 0.0 | 0.0 | 0.18 | 0.05 | 0.05 | 96 | 1013.7 |
| 20260510063624 | 23 | 69 | 0.0 | 0.0 | 0.18 | 0.05 | 0.05 | 96 | 1014.1 |
| 20260510063121 | 23 | 47 | 0.0 | 0.0 | 0.13 | 0.03 | 0.03 | 96 | 1014.0 |
| 20260510062617 | 23 | 47 | 0.0 | 0.0 | 0.13 | 0.03 | 0.03 | 96 | 1014.2 |
| 20260510062113 | 23 | 47 | 0.0 | 0.0 | 0.00 | 0.00 | 0.00 | 95 | 1014.4 |
| 20260510061609 | 23 | 17 | 0.0 | 0.0 | 0.00 | 0.00 | 0.00 | 95 | 1014.4 |
| 20260510061106 | 23 | 17 | 0.0 | 0.0 | 0.00 | 0.00 | 0.00 | 94 | 1014.6 |
| 20260510060602 | 23 | 42 | 0.0 | 0.0 | 0.00 | 0.00 | 0.00 | 95 | 1014.4 |
| 20260510060058 | 23 | 65 | 0.0 | 0.0 | 0.00 | 0.00 | 0.00 | 95 | 1014.7 |
| 20260510055554 | 23 | 1 | 0.0 | 0.0 | 0.00 | 0.00 | 0.00 | 95 | 1014.5 |
| 20260510055053 | 23 | 41 | 0.0 | 0.0 | 0.00 | 0.00 | 0.00 | 95 | 1014.5 |
| 20260510054549 | 23 | 194 | 0.0 | 0.0 | 0.00 | 0.00 | 0.00 | 95 | 1014.8 |
| 20260510054044 | 23 | 51 | 0.0 | 0.0 | 0.00 | 0.00 | 0.00 | 95 | 1014.7 |
| 20260510053544 | 23 | 52 | 0.0 | 0.0 | 0.00 | 0.00 | 0.00 | 95 | 1014.5 |
| 20260510053041 | 23 | 52 | 0.0 | 0.0 | 0.00 | 0.00 | 0.00 | 94 | 1014.5 |
| 20260510052537 | 23 | 52 | 0.0 | 0.0 | 0.00 | 0.00 | 0.00 | 94 | 1014.9 |
| 20260510052033 | 23 | 53 | 0.0 | 0.0 | 0.00 | 0.00 | 0.00 | 94 | 1015.0 |
| 20260510051528 | 23 | 53 | 0.0 | 0.0 | 0.00 | 0.00 | 0.00 | 94 | 1015.0 |
| 20260510051026 | 23 | 53 | 0.0 | 0.0 | 0.00 | 0.00 | 0.00 | 93 | 1014.9 |
| 20260510050523 | 23 | 51 | 0.0 | 0.0 | 0.00 | 0.00 | 0.00 | 93 | 1015.0 |
| 20260510050020 | 23 | 59 | 0.0 | 0.0 | 0.00 | 0.00 | 0.00 | 93 | 1015.0 |
| 20260510045517 | 23 | 26 | 0.0 | 0.0 | 0.00 | 0.00 | 0.00 | 92 | 1015.0 |
| 20260510045013 | 23 | 29 | 0.0 | 0.0 | 0.00 | 0.00 | 0.00 | 91 | 1015.0 |
| 20260510044510 | 24 | 16 | 0.0 | 0.0 | 0.00 | 0.00 | 0.00 | 90 | 1015.2 |
| 20260510044008 | 24 | 75 | 0.0 | 0.0 | 0.00 | 0.00 | 0.00 | 89 | 1015.1 |
| 20260510043502 | 25 | 57 | 0.0 | 0.0 | 0.00 | 0.00 | 0.00 | 87 | 1015.4 |
| 20260510043002 | 25 | 107 | 0.0 | 0.0 | 0.00 | 0.00 | 0.00 | 87 | 1015.3 |
| 20260510042457 | 25 | 62 | 0.0 | 0.0 | 0.00 | 0.00 | 0.00 | 86 | 1015.1 |
| 20260510041953 | 25 | 59 | 0.0 | 0.0 | 0.00 | 0.00 | 0.00 | 86 | 1015.2 |
| 20260510041450 | 25 | 36 | 0.0 | 0.0 | 0.00 | 0.00 | 0.00 | 85 | 1015.1 |
| 20260510040948 | 25 | 58 | 0.0 | 0.0 | 0.00 | 0.00 | 0.00 | 85 | 1014.9 |
| 20260510040444 | 25 | 36 | 0.0 | 0.0 | 0.00 | 0.00 | 0.00 | 84 | 1015.0 |
| 20260510035940 | 25 | 59 | 0.0 | 0.0 | 0.00 | 0.00 | 0.00 | 84 | 1014.9 |
| 20260510035437 | 25 | 44 | 0.0 | 0.0 | 0.00 | 0.00 | 0.00 | 84 | 1015.0 |
| 20260510034936 | 25 | 25 | 0.0 | 0.0 | 0.00 | 0.00 | 0.00 | 84 | 1014.9 |
| 20260510034436 | 25 | 51 | 0.0 | 0.0 | 0.00 | 0.00 | 0.00 | 84 | 1014.6 |
| 20260510033931 | 25 | 67 | 0.0 | 0.0 | 0.00 | 0.00 | 0.00 | 84 | 1014.8 |
| 20260510033427 | 25 | 47 | 0.0 | 0.0 | 0.00 | 0.00 | 0.00 | 84 | 1014.8 |
| 20260510032925 | 25 | 66 | 0.0 | 0.0 | 0.00 | 0.00 | 0.00 | 84 | 1014.6 |
| 20260510032421 | 25 | 58 | 0.0 | 0.0 | 0.00 | 0.00 | 0.00 | 84 | 1014.6 |
| 20260510031917 | 25 | 59 | 0.0 | 0.0 | 0.00 | 0.00 | 0.00 | 84 | 1014.7 |
| 20260510031412 | 25 | 48 | 0.0 | 0.0 | 0.00 | 0.00 | 0.00 | 83 | 1014.8 |
| 20260510030907 | 25 | 31 | 0.0 | 0.0 | 0.00 | 0.00 | 0.00 | 83 | 1014.7 |
| 20260510030404 | 25 | 44 | 0.0 | 0.0 | 0.00 | 0.00 | 0.00 | 83 | 1014.9 |
| 20260510025902 | 25 | 40 | 0.0 | 0.0 | 0.00 | 0.00 | 0.00 | 83 | 1014.8 |
| 20260510025359 | 25 | 25 | 0.0 | 0.0 | 0.00 | 0.00 | 0.00 | 82 | 1015.0 |
| 20260510024856 | 25 | 25 | 0.0 | 0.0 | 0.00 | 0.00 | 0.00 | 83 | 1014.8 |
| 20260510024352 | 25 | 25 | 0.0 | 0.0 | 0.00 | 0.00 | 0.00 | 82 | 1014.9 |
| 20260510023848 | 25 | 28 | 0.0 | 0.0 | 0.00 | 0.00 | 0.00 | 82 | 1014.9 |
| 20260510023345 | 25 | 29 | 0.0 | 0.0 | 0.00 | 0.00 | 0.00 | 81 | 1014.8 |
| 20260510022843 | 25 | 29 | 0.0 | 0.0 | 0.00 | 0.00 | 0.00 | 81 | 1015.0 |
| 20260510022342 | 25 | 29 | 0.0 | 0.0 | 0.00 | 0.00 | 0.00 | 81 | 1014.8 |
| 20260510021840 | 25 | 29 | 0.0 | 0.0 | 0.00 | 0.00 | 0.00 | 81 | 1014.9 |
| 20260510021339 | 25 | 29 | 0.0 | 0.0 | 0.00 | 0.00 | 0.00 | 81 | 1014.9 |
| 20260510020834 | 25 | 29 | 0.0 | 0.0 | 0.00 | 0.00 | 0.00 | 81 | 1014.5 |
| 20260510020329 | 25 | 29 | 0.0 | 0.0 | 0.00 | 0.00 | 0.00 | 81 | 1014.7 |
| 20260510015825 | 25 | 29 | 0.0 | 0.0 | 0.00 | 0.00 | 0.00 | 80 | 1014.5 |
| 20260510015321 | 25 | 29 | 0.0 | 0.0 | 0.00 | 0.00 | 0.00 | 79 | 1014.6 |
| 20260510014816 | 25 | 31 | 0.0 | 0.0 | 0.00 | 0.00 | 0.00 | 80 | 1014.7 |
| 20260510014314 | 25 | 18 | 0.0 | 0.0 | 0.00 | 0.00 | 0.00 | 79 | 1014.2 |
| 20260510013810 | 25 | 20 | 0.0 | 0.0 | 0.00 | 0.00 | 0.00 | 79 | 1014.2 |
| 20260510013305 | 26 | 18 | 0.0 | 0.0 | 0.00 | 0.00 | 0.00 | 79 | 1014.2 |
| 20260510012800 | 26 | 20 | 0.0 | 0.0 | 0.00 | 0.00 | 0.00 | 78 | 1014.2 |
| 20260510012255 | 26 | 23 | 0.0 | 0.0 | 0.00 | 0.00 | 0.00 | 77 | 1013.9 |
| 20260510011754 | 26 | 10 | 0.0 | 0.0 | 0.00 | 0.00 | 0.00 | 77 | 1013.9 |
| 20260510011250 | 26 | 18 | 0.0 | 0.0 | 0.00 | 0.00 | 0.00 | 76 | 1013.8 |
| 20260510010748 | 26 | 5 | 0.0 | 0.0 | 0.00 | 0.00 | 0.00 | 76 | 1013.6 |
| 20260510010244 | 26 | 344 | 0.0 | 0.0 | 0.00 | 0.00 | 0.00 | 75 | 1013.6 |
| 20260510005741 | 26 | 358 | 1.6 | 1.6 | 0.00 | 0.00 | 0.00 | 74 | 1013.7 |
| 20260510005237 | 26 | 2 | 0.0 | 0.0 | 0.00 | 0.00 | 0.00 | 73 | 1013.4 |
| 20260510004735 | 27 | 23 | 0.0 | 0.0 | 0.00 | 0.00 | 0.00 | 70 | 1013.6 |
| 20260510004233 | 27 | 13 | 0.0 | 0.0 | 0.00 | 0.00 | 0.00 | 70 | 1013.4 |
| 20260510003730 | 27 | 358 | 1.6 | 1.6 | 0.00 | 0.00 | 0.00 | 68 | 1013.5 |
| 20260510003226 | 27 | 353 | 0.0 | 0.0 | 0.00 | 0.00 | 0.00 | 66 | 1013.2 |
| 20260510002725 | 27 | 15 | 0.0 | 0.0 | 0.00 | 0.00 | 0.00 | 63 | 1013.2 |
| 20260510002223 | 27 | 355 | 0.0 | 1.6 | 0.00 | 0.00 | 0.00 | 61 | 1013.4 |
| 20260510001719 | 27 | 351 | 0.0 | 1.6 | 0.00 | 0.00 | 0.00 | 57 | 1013.3 |
| 20260510001218 | 28 | 3 | 0.0 | 0.0 | 0.00 | 0.00 | 0.00 | 57 | 1013.2 |
| 20260510000714 | 28 | 260 | 1.6 | 1.6 | 0.00 | 0.00 | 0.00 | 56 | 1012.9 |
| 20260510000211 | 28 | 157 | 1.6 | 1.6 | 0.00 | 0.00 | 0.00 | 55 | 1012.9 |
| 20260509235708 | 28 | 305 | 0.0 | 0.0 | 0.00 | 0.00 | 0.00 | 55 | 1012.7 |
| 20260509235204 | 28 | 310 | 1.6 | 3.2 | 0.00 | 0.00 | 0.00 | 54 | 1012.8 |
| 20260509234700 | 28 | 297 | 1.6 | 1.6 | 0.00 | 0.00 | 0.00 | 53 | 1012.8 |
| 20260509234157 | 28 | 263 | 3.2 | 3.2 | 0.00 | 0.00 | 0.00 | 52 | 1012.7 |
| 20260509233655 | 29 | 167 | 1.6 | 1.6 | 0.00 | 0.00 | 0.00 | 51 | 1012.7 |
| 20260509233153 | 29 | 235 | 3.2 | 4.8 | 0.00 | 0.00 | 0.00 | 50 | 1012.7 |
| 20260509232649 | 29 | 305 | 1.6 | 3.2 | 0.00 | 0.00 | 0.00 | 51 | 1012.2 |
| 20260509232146 | 30 | 300 | 3.2 | 4.8 | 0.00 | 0.00 | 0.00 | 52 | 1012.5 |
| 20260509231642 | 30 | 273 | 3.2 | 4.8 | 0.00 | 0.00 | 0.00 | 53 | 1012.5 |